| time (UTC) | temp C | wind direction | speed KPH | gust KPH | rain 1hr cm | rain 24hr cm | rain mn cm | humidity % | barometer mb |
| 20260507045017 | 1 | 0 | 0.0 | 0.0 | 0.00 | 0.00 | 0.00 | 72 | 1010.9 |
| 20260507044534 | 1 | 0 | 0.0 | 0.0 | 0.00 | 0.00 | 0.00 | 72 | 1011.0 |
| 20260507044016 | 1 | 0 | 0.0 | 1.6 | 0.00 | 0.00 | 0.00 | 71 | 1011.0 |
| 20260507043514 | 1 | 0 | 0.0 | 1.6 | 0.00 | 0.00 | 0.00 | 71 | 1010.9 |
| 20260507043037 | 1 | 0 | 0.0 | 1.6 | 0.00 | 0.00 | 0.00 | 70 | 1010.9 |
| 20260507042516 | 1 | 0 | 0.0 | 1.6 | 0.00 | 0.00 | 0.00 | 70 | 1010.9 |
| 20260507042016 | 1 | 0 | 0.0 | 1.6 | 0.00 | 0.00 | 0.00 | 69 | 1011.0 |
| 20260507041534 | 2 | 0 | 0.0 | 1.6 | 0.00 | 0.00 | 0.00 | 68 | 1011.1 |
| 20260507041015 | 2 | 0 | 0.0 | 1.6 | 0.00 | 0.00 | 0.00 | 68 | 1011.0 |
| 20260507040514 | 2 | 0 | 0.0 | 1.6 | 0.00 | 0.00 | 0.00 | 67 | 1011.1 |
| 20260507040034 | 2 | 0 | 0.0 | 1.6 | 0.00 | 0.00 | 0.00 | 66 | 1011.2 |
| 20260507035514 | 2 | 0 | 0.0 | 1.6 | 0.00 | 0.00 | 0.00 | 67 | 1011.2 |
| 20260507035015 | 2 | 0 | 0.0 | 1.6 | 0.00 | 0.00 | 0.00 | 65 | 1011.4 |
| 20260507034538 | 3 | 295 | 0.0 | 1.6 | 0.00 | 0.00 | 0.00 | 65 | 1011.2 |
| 20260507034015 | 3 | 0 | 0.0 | 1.6 | 0.00 | 0.00 | 0.00 | 64 | 1011.2 |
| 20260507033515 | 3 | 0 | 0.0 | 0.0 | 0.00 | 0.00 | 0.00 | 64 | 1011.1 |
| 20260507033040 | 3 | 0 | 0.0 | 0.0 | 0.00 | 0.00 | 0.00 | 63 | 1011.2 |
| 20260507032519 | 3 | 0 | 0.0 | 1.6 | 0.00 | 0.00 | 0.00 | 64 | 1011.2 |
| 20260507032016 | 3 | 0 | 0.0 | 1.6 | 0.00 | 0.00 | 0.00 | 63 | 1011.2 |
| 20260507031532 | 3 | 295 | 0.0 | 1.6 | 0.00 | 0.00 | 0.00 | 63 | 1011.3 |
| 20260507031018 | 3 | 295 | 0.0 | 1.6 | 0.00 | 0.00 | 0.00 | 64 | 1011.3 |
| 20260507030514 | 3 | 0 | 0.0 | 1.6 | 0.00 | 0.00 | 0.00 | 62 | 1011.3 |
| 20260507030032 | 3 | 0 | 0.0 | 1.6 | 0.00 | 0.00 | 0.00 | 62 | 1011.3 |
| 20260507025515 | 3 | 0 | 0.0 | 1.6 | 0.00 | 0.00 | 0.00 | 63 | 1011.2 |
| 20260507025015 | 4 | 0 | 0.0 | 1.6 | 0.00 | 0.00 | 0.00 | 62 | 1011.2 |
| 20260507024536 | 4 | 0 | 0.0 | 1.6 | 0.00 | 0.00 | 0.00 | 62 | 1011.2 |
| 20260507024015 | 4 | 0 | 0.0 | 1.6 | 0.00 | 0.00 | 0.00 | 61 | 1011.2 |
| 20260507023514 | 4 | 0 | 0.0 | 0.0 | 0.00 | 0.00 | 0.00 | 59 | 1011.1 |
| 20260507023035 | 4 | 0 | 0.0 | 0.0 | 0.00 | 0.00 | 0.00 | 57 | 1011.3 |
| 20260507022515 | 4 | 0 | 0.0 | 1.6 | 0.00 | 0.00 | 0.00 | 58 | 1011.2 |
| 20260507022014 | 5 | 0 | 0.0 | 1.6 | 0.00 | 0.00 | 0.00 | 58 | 1011.3 |
| 20260507021534 | 5 | 0 | 0.0 | 1.6 | 0.00 | 0.00 | 0.00 | 58 | 1011.1 |
| 20260507021017 | 5 | 0 | 0.0 | 0.0 | 0.00 | 0.00 | 0.00 | 57 | 1011.1 |
| 20260507020515 | 5 | 0 | 0.0 | 0.0 | 0.00 | 0.00 | 0.00 | 57 | 1011.1 |
| 20260507020035 | 5 | 0 | 0.0 | 0.0 | 0.00 | 0.00 | 0.00 | 56 | 1011.2 |
| 20260507015515 | 5 | 0 | 0.0 | 0.0 | 0.00 | 0.00 | 0.00 | 56 | 1011.0 |
| 20260507015021 | 5 | 0 | 0.0 | 0.0 | 0.00 | 0.00 | 0.00 | 56 | 1011.0 |
| 20260507014542 | 5 | 0 | 0.0 | 3.2 | 0.00 | 0.00 | 0.00 | 54 | 1011.1 |
| 20260507014014 | 5 | 0 | 0.0 | 3.2 | 0.00 | 0.00 | 0.00 | 54 | 1011.2 |
| 20260507013514 | 5 | 295 | 0.0 | 3.2 | 0.00 | 0.00 | 0.00 | 54 | 1011.2 |
| 20260507013034 | 5 | 0 | 0.0 | 3.2 | 0.00 | 0.00 | 0.00 | 54 | 1011.2 |
| 20260507012515 | 5 | 0 | 0.0 | 3.2 | 0.00 | 0.00 | 0.00 | 54 | 1011.1 |
| 20260507012015 | 5 | 295 | 0.0 | 3.2 | 0.00 | 0.00 | 0.00 | 55 | 1011.2 |
| 20260507011538 | 5 | 0 | 0.0 | 1.6 | 0.00 | 0.00 | 0.00 | 53 | 1011.0 |
| 20260507011015 | 5 | 0 | 0.0 | 3.2 | 0.00 | 0.00 | 0.00 | 53 | 1010.9 |
| 20260507010516 | 5 | 295 | 0.0 | 3.2 | 0.00 | 0.00 | 0.00 | 53 | 1011.0 |
| 20260507010035 | 5 | 0 | 0.0 | 4.8 | 0.00 | 0.00 | 0.00 | 53 | 1011.2 |
| 20260507005516 | 5 | 0 | 1.6 | 4.8 | 0.00 | 0.00 | 0.00 | 52 | 1011.1 |
| 20260507005015 | 5 | 294 | 0.0 | 4.8 | 0.00 | 0.00 | 0.00 | 53 | 1011.2 |
| 20260507004537 | 5 | 0 | 0.0 | 6.4 | 0.00 | 0.00 | 0.00 | 53 | 1011.1 |
| 20260507004016 | 5 | 0 | 0.0 | 6.4 | 0.00 | 0.00 | 0.00 | 53 | 1011.2 |
| 20260507003516 | 5 | 304 | 0.0 | 9.7 | 0.00 | 0.00 | 0.00 | 52 | 1011.2 |
| 20260507003034 | 6 | 304 | 1.6 | 9.7 | 0.00 | 0.00 | 0.00 | 52 | 1011.3 |
| 20260507002515 | 6 | 311 | 1.6 | 4.8 | 0.00 | 0.00 | 0.00 | 52 | 1011.3 |
| 20260507002017 | 6 | 252 | 0.0 | 6.4 | 0.00 | 0.00 | 0.00 | 52 | 1011.2 |
| 20260507001540 | 6 | 252 | 1.6 | 6.4 | 0.00 | 0.00 | 0.00 | 54 | 1011.3 |
| 20260507001014 | 6 | 38 | 0.0 | 4.8 | 0.00 | 0.00 | 0.00 | 51 | 1011.3 |
| 20260507000514 | 6 | 38 | 0.0 | 4.8 | 0.00 | 0.00 | 0.00 | 51 | 1011.2 |
| 20260507000032 | 6 | 301 | 1.6 | 6.4 | 0.00 | 0.00 | 0.00 | 52 | 1011.3 |
| 20260506235515 | 6 | 292 | 1.6 | 8.0 | 0.00 | 0.00 | 0.00 | 51 | 1011.5 |
| 20260506235015 | 6 | 306 | 3.2 | 8.0 | 0.00 | 0.00 | 0.00 | 51 | 1011.6 |
| 20260506234533 | 6 | 284 | 1.6 | 6.4 | 0.00 | 0.00 | 0.00 | 51 | 1011.5 |
| 20260506234015 | 6 | 246 | 1.6 | 11.3 | 0.00 | 0.00 | 0.00 | 51 | 1011.6 |
| 20260506233516 | 6 | 275 | 1.6 | 12.9 | 0.00 | 0.00 | 0.00 | 51 | 1011.6 |
| 20260506233031 | 6 | 292 | 3.2 | 12.9 | 0.00 | 0.00 | 0.00 | 52 | 1011.6 |
| 20260506232515 | 6 | 288 | 3.2 | 9.7 | 0.00 | 0.00 | 0.00 | 50 | 1011.8 |
| 20260506232013 | 6 | 313 | 1.6 | 9.7 | 0.00 | 0.00 | 0.00 | 52 | 1011.7 |
| 20260506231534 | 6 | 292 | 3.2 | 6.4 | 0.00 | 0.00 | 0.00 | 50 | 1011.7 |
| 20260506231014 | 6 | 284 | 3.2 | 11.3 | 0.00 | 0.00 | 0.00 | 50 | 1011.7 |
| 20260506230517 | 6 | 288 | 3.2 | 11.3 | 0.00 | 0.00 | 0.00 | 50 | 1011.7 |
| 20260506230037 | 6 | 300 | 3.2 | 8.0 | 0.00 | 0.00 | 0.00 | 50 | 1011.9 |
| 20260506225516 | 6 | 299 | 1.6 | 6.4 | 0.00 | 0.00 | 0.00 | 50 | 1011.8 |
| 20260506225015 | 6 | 306 | 1.6 | 6.4 | 0.00 | 0.00 | 0.00 | 52 | 1011.9 |
| 20260506224534 | 6 | 298 | 1.6 | 11.3 | 0.00 | 0.00 | 0.00 | 51 | 1011.9 |
| 20260506224014 | 6 | 283 | 1.6 | 11.3 | 0.00 | 0.00 | 0.00 | 52 | 1012.1 |
| 20260506223520 | 6 | 0 | 1.6 | 12.9 | 0.00 | 0.00 | 0.00 | 51 | 1012.0 |
| 20260506223033 | 6 | 0 | 4.8 | 12.9 | 0.00 | 0.00 | 0.00 | 50 | 1011.9 |
| 20260506222516 | 6 | 297 | 3.2 | 8.0 | 0.00 | 0.00 | 0.00 | 51 | 1011.8 |
| 20260506222013 | 6 | 302 | 1.6 | 8.0 | 0.00 | 0.00 | 0.00 | 52 | 1012.0 |
| 20260506221532 | 6 | 311 | 1.6 | 11.3 | 0.00 | 0.00 | 0.00 | 52 | 1012.0 |
| 20260506221013 | 6 | 279 | 3.2 | 11.3 | 0.00 | 0.00 | 0.00 | 53 | 1012.0 |
| 20260506220515 | 6 | 253 | 3.2 | 11.3 | 0.00 | 0.00 | 0.00 | 52 | 1012.1 |
| 20260506220038 | 6 | 333 | 3.2 | 11.3 | 0.00 | 0.00 | 0.00 | 53 | 1012.1 |
| 20260506215517 | 6 | 271 | 4.8 | 12.9 | 0.00 | 0.00 | 0.00 | 56 | 1012.2 |
| 20260506215015 | 5 | 289 | 4.8 | 14.5 | 0.00 | 0.00 | 0.00 | 52 | 1012.2 |
| 20260506214531 | 5 | 282 | 4.8 | 19.3 | 0.00 | 0.00 | 0.00 | 54 | 1012.2 |
| 20260506214012 | 5 | 281 | 9.7 | 19.3 | 0.00 | 0.00 | 0.00 | 56 | 1012.3 |
| 20260506213515 | 5 | 249 | 4.8 | 14.5 | 0.00 | 0.00 | 0.00 | 54 | 1012.3 |
| 20260506213032 | 6 | 271 | 8.0 | 14.5 | 0.00 | 0.00 | 0.00 | 52 | 1012.4 |
| 20260506212517 | 5 | 309 | 3.2 | 11.3 | 0.00 | 0.00 | 0.00 | 52 | 1012.5 |
| 20260506212013 | 5 | 292 | 3.2 | 16.1 | 0.00 | 0.00 | 0.00 | 53 | 1012.5 |
| 20260506211534 | 5 | 292 | 6.4 | 19.3 | 0.00 | 0.00 | 0.00 | 53 | 1012.6 |
| 20260506211015 | 5 | 277 | 9.7 | 19.3 | 0.00 | 0.00 | 0.00 | 57 | 1012.5 |
| 20260506210514 | 5 | 258 | 8.0 | 17.7 | 0.00 | 0.00 | 0.00 | 56 | 1012.6 |
| 20260506210032 | 5 | 276 | 8.0 | 17.7 | 0.00 | 0.00 | 0.00 | 52 | 1012.8 |
| 20260506205514 | 5 | 254 | 9.7 | 20.9 | 0.00 | 0.00 | 0.00 | 57 | 1012.6 |
| 20260506205014 | 5 | 257 | 9.7 | 20.9 | 0.00 | 0.00 | 0.00 | 55 | 1012.6 |
| 20260506204534 | 6 | 271 | 9.7 | 17.7 | 0.00 | 0.00 | 0.00 | 53 | 1012.8 |
| 20260506204017 | 6 | 267 | 9.7 | 19.3 | 0.00 | 0.00 | 0.00 | 54 | 1012.7 |
| 20260506203516 | 6 | 271 | 9.7 | 19.3 | 0.00 | 0.00 | 0.00 | 54 | 1012.7 |
| 20260506203031 | 6 | 263 | 6.4 | 20.9 | 0.00 | 0.00 | 0.00 | 53 | 1012.5 |
| 20260506202513 | 6 | 36 | 4.8 | 22.5 | 0.00 | 0.00 | 0.00 | 51 | 1012.7 |
| 20260506202019 | 6 | 265 | 9.7 | 22.5 | 0.00 | 0.00 | 0.00 | 57 | 1012.7 |
| 20260506201532 | 6 | 265 | 8.0 | 17.7 | 0.00 | 0.00 | 0.00 | 54 | 1012.7 |
| 20260506201014 | 6 | 310 | 9.7 | 17.7 | 0.00 | 0.00 | 0.00 | 54 | 1012.9 |
| 20260506200516 | 6 | 287 | 6.4 | 16.1 | 0.00 | 0.00 | 0.00 | 54 | 1012.6 |
| 20260506200033 | 6 | 270 | 6.4 | 16.1 | 0.00 | 0.00 | 0.00 | 52 | 1012.6 |
| 20260506195515 | 6 | 303 | 9.7 | 16.1 | 0.00 | 0.00 | 0.00 | 52 | 1012.7 |
| 20260506195016 | 6 | 281 | 6.4 | 20.9 | 0.00 | 0.00 | 0.00 | 54 | 1012.8 |
| 20260506194532 | 6 | 268 | 11.3 | 20.9 | 0.00 | 0.00 | 0.00 | 53 | 1012.7 |
| 20260506194013 | 6 | 307 | 6.4 | 16.1 | 0.00 | 0.00 | 0.00 | 51 | 1012.8 |
| 20260506193513 | 5 | 292 | 4.8 | 20.9 | 0.00 | 0.00 | 0.00 | 52 | 1012.7 |
| 20260506193031 | 5 | 288 | 11.3 | 20.9 | 0.00 | 0.00 | 0.00 | 55 | 1012.7 |
| 20260506192515 | 5 | 286 | 9.7 | 22.5 | 0.00 | 0.00 | 0.00 | 53 | 1012.7 |
| 20260506192016 | 6 | 288 | 9.7 | 22.5 | 0.00 | 0.00 | 0.00 | 53 | 1012.6 |
| 20260506191534 | 6 | 280 | 6.4 | 14.5 | 0.00 | 0.00 | 0.00 | 52 | 1012.6 |
| 20260506191016 | 6 | 252 | 4.8 | 14.5 | 0.00 | 0.00 | 0.00 | 53 | 1012.8 |
| 20260506190519 | 5 | 316 | 3.2 | 12.9 | 0.00 | 0.00 | 0.00 | 52 | 1012.6 |
| 20260506190034 | 5 | 294 | 4.8 | 19.3 | 0.00 | 0.00 | 0.00 | 52 | 1012.8 |
| 20260506185515 | 5 | 336 | 6.4 | 19.3 | 0.00 | 0.00 | 0.00 | 55 | 1012.6 |
| 20260506185013 | 5 | 284 | 4.8 | 20.9 | 0.00 | 0.00 | 0.00 | 52 | 1012.8 |
| 20260506184534 | 5 | 283 | 11.3 | 20.9 | 0.00 | 0.00 | 0.00 | 56 | 1012.8 |
| 20260506184020 | 5 | 277 | 4.8 | 16.1 | 0.00 | 0.00 | 0.00 | 53 | 1012.8 |
| 20260506183515 | 5 | 257 | 4.8 | 16.1 | 0.00 | 0.00 | 0.00 | 55 | 1012.9 |
| 20260506183034 | 5 | 340 | 8.0 | 16.1 | 0.00 | 0.00 | 0.00 | 56 | 1012.8 |
| 20260506182516 | 5 | 252 | 6.4 | 16.1 | 0.00 | 0.00 | 0.00 | 54 | 1012.8 |
| 20260506182014 | 5 | 346 | 3.2 | 17.7 | 0.00 | 0.00 | 0.00 | 56 | 1013.0 |
| 20260506181532 | 5 | 281 | 6.4 | 17.7 | 0.00 | 0.00 | 0.00 | 54 | 1013.1 |
| 20260506181016 | 5 | 267 | 1.6 | 9.7 | 0.00 | 0.00 | 0.00 | 55 | 1013.1 |
| 20260506180517 | 5 | 355 | 4.8 | 9.7 | 0.00 | 0.00 | 0.00 | 54 | 1013.2 |
| 20260506180032 | 4 | 266 | 3.2 | 12.9 | 0.00 | 0.00 | 0.00 | 56 | 1013.1 |
| 20260506175515 | 4 | 286 | 3.2 | 12.9 | 0.00 | 0.00 | 0.00 | 55 | 1013.2 |
| 20260506175022 | 4 | 279 | 3.2 | 9.7 | 0.00 | 0.00 | 0.00 | 56 | 1013.3 |
| 20260506174532 | 4 | 326 | 3.2 | 11.3 | 0.00 | 0.00 | 0.00 | 54 | 1013.3 |
| 20260506174014 | 4 | 298 | 3.2 | 11.3 | 0.00 | 0.00 | 0.00 | 56 | 1013.4 |
| 20260506173515 | 4 | 277 | 3.2 | 14.5 | 0.00 | 0.00 | 0.00 | 56 | 1013.4 |
| 20260506173036 | 3 | 331 | 4.8 | 14.5 | 0.00 | 0.00 | 0.00 | 57 | 1013.4 |
| 20260506172515 | 3 | 280 | 3.2 | 9.7 | 0.00 | 0.00 | 0.00 | 58 | 1013.6 |
| 20260506172017 | 3 | 322 | 3.2 | 9.7 | 0.00 | 0.00 | 0.00 | 59 | 1013.6 |
| 20260506171533 | 3 | 312 | 1.6 | 11.3 | 0.00 | 0.00 | 0.00 | 59 | 1013.4 |
| 20260506171015 | 3 | 302 | 3.2 | 11.3 | 0.00 | 0.00 | 0.00 | 57 | 1013.7 |
| 20260506170515 | 3 | 334 | 0.0 | 4.8 | 0.00 | 0.00 | 0.00 | 58 | 1013.7 |
| 20260506170036 | 3 | 313 | 1.6 | 11.3 | 0.00 | 0.00 | 0.00 | 59 | 1013.7 |
| 20260506165515 | 3 | 288 | 3.2 | 11.3 | 0.00 | 0.00 | 0.00 | 56 | 1013.7 |
| 20260506165015 | 3 | 294 | 3.2 | 9.7 | 0.00 | 0.00 | 0.00 | 58 | 1013.7 |
| 20260506164534 | 3 | 305 | 4.8 | 9.7 | 0.00 | 0.00 | 0.00 | 57 | 1013.6 |
| 20260506164014 | 3 | 285 | 3.2 | 9.7 | 0.00 | 0.00 | 0.00 | 60 | 1013.6 |
| 20260506163515 | 3 | 299 | 3.2 | 9.7 | 0.00 | 0.00 | 0.00 | 59 | 1013.7 |
| 20260506163037 | 3 | 290 | 0.0 | 6.4 | 0.00 | 0.00 | 0.00 | 60 | 1013.8 |
| 20260506162515 | 3 | 0 | 1.6 | 6.4 | 0.00 | 0.00 | 0.00 | 59 | 1013.8 |
| 20260506162016 | 3 | 341 | 1.6 | 6.4 | 0.00 | 0.00 | 0.00 | 59 | 1013.8 |
| 20260506161535 | 3 | 319 | 1.6 | 8.0 | 0.00 | 0.00 | 0.00 | 58 | 1013.7 |
| 20260506161016 | 3 | 17 | 3.2 | 11.3 | 0.00 | 0.00 | 0.00 | 59 | 1013.8 |
| 20260506160517 | 3 | 290 | 4.8 | 11.3 | 0.00 | 0.00 | 0.00 | 59 | 1013.7 |
| 20260506160031 | 3 | 296 | 1.6 | 9.7 | 0.00 | 0.00 | 0.00 | 61 | 1013.6 |
| 20260506155513 | 3 | 292 | 3.2 | 9.7 | 0.00 | 0.00 | 0.00 | 59 | 1013.7 |
| 20260506155015 | 3 | 309 | 1.6 | 6.4 | 0.00 | 0.00 | 0.00 | 59 | 1013.9 |
| 20260506154533 | 3 | 0 | 1.6 | 9.7 | 0.00 | 0.00 | 0.00 | 59 | 1013.7 |
| 20260506154017 | 3 | 291 | 3.2 | 9.7 | 0.00 | 0.00 | 0.00 | 61 | 1013.8 |
| 20260506153516 | 3 | 330 | 3.2 | 6.4 | 0.00 | 0.00 | 0.00 | 60 | 1013.7 |
| 20260506153031 | 2 | 278 | 3.2 | 6.4 | 0.00 | 0.00 | 0.00 | 60 | 1013.6 |
| 20260506152513 | 2 | 309 | 0.0 | 6.4 | 0.00 | 0.00 | 0.00 | 61 | 1013.5 |
| 20260506152017 | 2 | 0 | 0.0 | 6.4 | 0.00 | 0.00 | 0.00 | 63 | 1013.4 |
| 20260506151534 | 2 | 286 | 1.6 | 6.4 | 0.00 | 0.00 | 0.00 | 63 | 1013.6 |
| 20260506151015 | 2 | 340 | 1.6 | 6.4 | 0.00 | 0.00 | 0.00 | 63 | 1013.6 |
| 20260506150516 | 2 | 0 | 1.6 | 6.4 | 0.00 | 0.00 | 0.00 | 63 | 1013.6 |
| 20260506150034 | 2 | 336 | 1.6 | 3.2 | 0.00 | 0.00 | 0.00 | 64 | 1013.5 |
| 20260506145516 | 2 | 0 | 0.0 | 4.8 | 0.00 | 0.00 | 0.00 | 64 | 1013.7 |
| 20260506145017 | 2 | 276 | 0.0 | 6.4 | 0.00 | 0.00 | 0.00 | 64 | 1013.5 |
| 20260506144540 | 2 | 269 | 1.6 | 6.4 | 0.00 | 0.00 | 0.00 | 65 | 1013.6 |
| 20260506144016 | 2 | 314 | 0.0 | 4.8 | 0.00 | 0.00 | 0.00 | 65 | 1013.6 |
| 20260506143516 | 2 | 320 | 1.6 | 6.4 | 0.00 | 0.00 | 0.00 | 64 | 1013.7 |
| 20260506143032 | 2 | 305 | 3.2 | 8.0 | 0.00 | 0.00 | 0.00 | 63 | 1013.7 |
| 20260506142515 | 2 | 293 | 1.6 | 8.0 | 0.00 | 0.00 | 0.00 | 64 | 1013.7 |
| 20260506142015 | 2 | 292 | 1.6 | 6.4 | 0.00 | 0.00 | 0.00 | 64 | 1013.6 |
| 20260506141536 | 2 | 0 | 1.6 | 4.8 | 0.00 | 0.00 | 0.00 | 64 | 1013.8 |
| 20260506141015 | 2 | 288 | 1.6 | 4.8 | 0.00 | 0.00 | 0.00 | 65 | 1013.6 |
| 20260506140516 | 2 | 0 | 0.0 | 3.2 | 0.00 | 0.00 | 0.00 | 65 | 1013.6 |
| 20260506140032 | 2 | 288 | 0.0 | 4.8 | 0.00 | 0.00 | 0.00 | 65 | 1013.6 |
| 20260506135515 | 2 | 0 | 0.0 | 4.8 | 0.00 | 0.00 | 0.00 | 64 | 1013.6 |
| 20260506135021 | 2 | 0 | 0.0 | 4.8 | 0.00 | 0.00 | 0.00 | 64 | 1013.5 |
| 20260506134534 | 2 | 284 | 1.6 | 4.8 | 0.00 | 0.00 | 0.00 | 66 | 1013.4 |
| 20260506134013 | 2 | 117 | 1.6 | 3.2 | 0.00 | 0.00 | 0.00 | 64 | 1013.5 |
| 20260506133517 | 2 | 117 | 0.0 | 3.2 | 0.00 | 0.00 | 0.00 | 65 | 1013.4 |
| 20260506133040 | 2 | 117 | 0.0 | 3.2 | 0.00 | 0.00 | 0.00 | 65 | 1013.4 |
| 20260506132517 | 2 | 117 | 0.0 | 3.2 | 0.00 | 0.00 | 0.00 | 66 | 1013.4 |
| 20260506132015 | 1 | 0 | 0.0 | 3.2 | 0.00 | 0.00 | 0.00 | 66 | 1013.2 |
| 20260506131532 | 1 | 0 | 0.0 | 3.2 | 0.00 | 0.00 | 0.00 | 67 | 1013.3 |
| 20260506131014 | 1 | 0 | 0.0 | 1.6 | 0.00 | 0.00 | 0.00 | 67 | 1013.3 |
| 20260506130514 | 1 | 318 | 0.0 | 1.6 | 0.00 | 0.00 | 0.00 | 67 | 1013.1 |
| 20260506130031 | 1 | 0 | 0.0 | 3.2 | 0.00 | 0.00 | 0.00 | 68 | 1013.0 |
| 20260506125515 | 1 | 0 | 0.0 | 4.8 | 0.00 | 0.00 | 0.00 | 68 | 1013.0 |
| 20260506125013 | 1 | 318 | 0.0 | 4.8 | 0.00 | 0.00 | 0.00 | 68 | 1012.8 |
| 20260506124531 | 1 | 302 | 0.0 | 4.8 | 0.00 | 0.00 | 0.00 | 67 | 1013.0 |
| 20260506124017 | 1 | 302 | 1.6 | 4.8 | 0.00 | 0.00 | 0.00 | 68 | 1012.8 |
| 20260506123517 | 1 | 303 | 0.0 | 3.2 | 0.00 | 0.00 | 0.00 | 68 | 1012.9 |
| 20260506123030 | 1 | 303 | 0.0 | 3.2 | 0.00 | 0.00 | 0.00 | 68 | 1012.8 |
| 20260506122515 | 1 | 0 | 0.0 | 3.2 | 0.00 | 0.00 | 0.00 | 68 | 1012.7 |
| 20260506122021 | 1 | 303 | 0.0 | 3.2 | 0.00 | 0.00 | 0.00 | 68 | 1012.7 |
| 20260506121534 | 1 | 303 | 0.0 | 3.2 | 0.00 | 0.00 | 0.00 | 69 | 1012.4 |
| 20260506121015 | 1 | 303 | 0.0 | 3.2 | 0.00 | 0.00 | 0.00 | 68 | 1012.5 |
| 20260506120517 | 1 | 303 | 0.0 | 3.2 | 0.00 | 0.00 | 0.00 | 68 | 1012.3 |
| 20260506120034 | 1 | 0 | 0.0 | 3.2 | 0.00 | 0.00 | 0.00 | 68 | 1012.4 |
| 20260506115516 | 1 | 303 | 0.0 | 3.2 | 0.00 | 0.00 | 0.00 | 69 | 1012.3 |
| 20260506115016 | 1 | 0 | 0.0 | 3.2 | 0.00 | 0.00 | 0.00 | 69 | 1012.2 |
| 20260506114533 | 1 | 303 | 0.0 | 3.2 | 0.00 | 0.00 | 0.00 | 70 | 1012.2 |
| 20260506114012 | 1 | 0 | 0.0 | 3.2 | 0.00 | 0.00 | 0.00 | 70 | 1012.0 |
| 20260506113513 | 1 | 0 | 0.0 | 3.2 | 0.00 | 0.00 | 0.00 | 70 | 1012.1 |
| 20260506113032 | 1 | 0 | 0.0 | 3.2 | 0.00 | 0.00 | 0.00 | 70 | 1012.1 |
| 20260506112514 | 1 | 303 | 0.0 | 3.2 | 0.00 | 0.00 | 0.00 | 70 | 1012.1 |
| 20260506112015 | 1 | 303 | 0.0 | 1.6 | 0.00 | 0.00 | 0.00 | 69 | 1012.0 |
| 20260506111531 | 1 | 0 | 0.0 | 1.6 | 0.00 | 0.00 | 0.00 | 69 | 1011.9 |
| 20260506111012 | 1 | 0 | 0.0 | 3.2 | 0.00 | 0.00 | 0.00 | 69 | 1011.9 |
| 20260506110512 | 1 | 303 | 0.0 | 3.2 | 0.00 | 0.00 | 0.00 | 68 | 1012.0 |
| 20260506110030 | 1 | 303 | 0.0 | 1.6 | 0.00 | 0.00 | 0.00 | 69 | 1012.0 |
| 20260506105515 | 1 | 0 | 0.0 | 1.6 | 0.00 | 0.00 | 0.00 | 68 | 1012.0 |
| 20260506105019 | 1 | 0 | 0.0 | 1.6 | 0.00 | 0.00 | 0.00 | 68 | 1011.9 |
| 20260506104533 | 1 | 0 | 0.0 | 1.6 | 0.00 | 0.00 | 0.00 | 68 | 1011.9 |
| 20260506104016 | 1 | 0 | 0.0 | 3.2 | 0.00 | 0.00 | 0.00 | 68 | 1011.9 |
| 20260506103514 | 1 | 303 | 1.6 | 3.2 | 0.00 | 0.00 | 0.00 | 68 | 1011.9 |
| 20260506103032 | 1 | 303 | 1.6 | 3.2 | 0.00 | 0.00 | 0.00 | 68 | 1011.9 |
| 20260506102515 | 1 | 303 | 0.0 | 3.2 | 0.00 | 0.00 | 0.00 | 69 | 1011.8 |
| 20260506102013 | 0 | 303 | 0.0 | 1.6 | 0.00 | 0.00 | 0.00 | 68 | 1011.8 |
| 20260506101532 | 0 | 0 | 0.0 | 1.6 | 0.00 | 0.00 | 0.00 | 68 | 1011.9 |
| 20260506101014 | 0 | 0 | 0.0 | 1.6 | 0.00 | 0.00 | 0.00 | 69 | 1011.9 |
| 20260506100517 | 0 | 0 | 0.0 | 1.6 | 0.00 | 0.00 | 0.00 | 69 | 1011.8 |
| 20260506100031 | 0 | 0 | 0.0 | 1.6 | 0.00 | 0.00 | 0.00 | 70 | 1011.8 |
| 20260506095513 | 0 | 0 | 0.0 | 1.6 | 0.00 | 0.00 | 0.00 | 70 | 1011.6 |
| 20260506095014 | 0 | 0 | 0.0 | 1.6 | 0.00 | 0.00 | 0.00 | 70 | 1011.6 |
| 20260506094531 | 0 | 0 | 0.0 | 1.6 | 0.00 | 0.00 | 0.00 | 70 | 1011.6 |
| 20260506094016 | 0 | 0 | 0.0 | 1.6 | 0.00 | 0.00 | 0.00 | 71 | 1011.6 |
| 20260506093513 | 0 | 0 | 0.0 | 1.6 | 0.00 | 0.00 | 0.00 | 71 | 1011.5 |
| 20260506093038 | 0 | 0 | 0.0 | 1.6 | 0.00 | 0.00 | 0.00 | 71 | 1011.6 |
| 20260506092515 | 0 | 0 | 0.0 | 1.6 | 0.00 | 0.00 | 0.00 | 71 | 1011.5 |
| 20260506092016 | 0 | 303 | 0.0 | 1.6 | 0.00 | 0.00 | 0.00 | 71 | 1011.5 |
| 20260506091534 | 0 | 0 | 0.0 | 3.2 | 0.00 | 0.00 | 0.00 | 71 | 1011.5 |
| 20260506091014 | 0 | 0 | 0.0 | 3.2 | 0.00 | 0.00 | 0.00 | 71 | 1011.3 |
| 20260506090513 | 0 | 0 | 0.0 | 1.6 | 0.00 | 0.00 | 0.00 | 71 | 1011.4 |
| 20260506090032 | 0 | 0 | 0.0 | 1.6 | 0.00 | 0.00 | 0.00 | 71 | 1011.5 |
| 20260506085514 | 0 | 0 | 0.0 | 3.2 | 0.00 | 0.00 | 0.00 | 71 | 1011.4 |
| 20260506085014 | 0 | 0 | 0.0 | 3.2 | 0.00 | 0.00 | 0.00 | 71 | 1011.2 |
| 20260506084536 | 0 | 303 | 0.0 | 3.2 | 0.00 | 0.00 | 0.00 | 71 | 1011.2 |
| 20260506084015 | 0 | 303 | 0.0 | 3.2 | 0.00 | 0.00 | 0.00 | 71 | 1011.1 |
| 20260506083514 | 0 | 0 | 0.0 | 4.8 | 0.00 | 0.00 | 0.00 | 71 | 1011.2 |
| 20260506083037 | 0 | 303 | 0.0 | 4.8 | 0.00 | 0.00 | 0.00 | 71 | 1011.2 |
| 20260506082515 | 0 | 303 | 0.0 | 3.2 | 0.00 | 0.00 | 0.00 | 71 | 1011.3 |
| 20260506082013 | 0 | 303 | 0.0 | 3.2 | 0.00 | 0.00 | 0.00 | 71 | 1011.3 |
| 20260506081533 | 0 | 0 | 0.0 | 3.2 | 0.00 | 0.00 | 0.00 | 71 | 1011.1 |
| 20260506081015 | 0 | 0 | 0.0 | 3.2 | 0.00 | 0.00 | 0.00 | 71 | 1011.2 |
| 20260506080516 | 0 | 0 | 0.0 | 3.2 | 0.00 | 0.00 | 0.00 | 71 | 1011.2 |
| 20260506073515 | 0 | 0 | 0.0 | 3.2 | 0.00 | 0.00 | 0.00 | 70 | 1011.2 |
| 20260506073032 | 0 | 303 | 0.0 | 3.2 | 0.00 | 0.00 | 0.00 | 70 | 1011.1 |
| 20260506072517 | 0 | 303 | 0.0 | 3.2 | 0.00 | 0.00 | 0.00 | 70 | 1011.0 |
| 20260506072014 | 0 | 0 | 0.0 | 3.2 | 0.00 | 0.00 | 0.00 | 70 | 1011.0 |
| 20260506071531 | 0 | 0 | 0.0 | 3.2 | 0.00 | 0.00 | 0.00 | 70 | 1010.8 |
| 20260506071014 | 0 | 303 | 0.0 | 1.6 | 0.00 | 0.00 | 0.00 | 71 | 1010.9 |
| 20260506070512 | 0 | 0 | 0.0 | 1.6 | 0.00 | 0.00 | 0.00 | 71 | 1010.9 |
| 20260506062512 | 0 | 303 | 0.0 | 3.2 | 0.00 | 0.00 | 0.00 | 71 | 1011.0 |
| 20260506062015 | 0 | 303 | 0.0 | 3.2 | 0.00 | 0.00 | 0.00 | 71 | 1011.2 |
| 20260506061532 | 0 | 303 | 1.6 | 3.2 | 0.00 | 0.00 | 0.00 | 71 | 1011.3 |
| 20260506061015 | 0 | 303 | 0.0 | 1.6 | 0.00 | 0.00 | 0.00 | 70 | 1011.3 |
| 20260506060512 | 0 | 0 | 0.0 | 3.2 | 0.00 | 0.00 | 0.00 | 70 | 1011.3 |
| 20260506051015 | 0 | 303 | 0.0 | 3.2 | 0.00 | 0.00 | 0.00 | 68 | 1010.7 |
| 20260506050516 | 0 | 303 | 0.0 | 3.2 | 0.00 | 0.00 | 0.00 | 68 | 1010.7 |